Location: Unspecified
(48.5539°N, 71.6350°W)
Time: 17:38:30
(UTC-05:00)

ISS - Pass Details

Date: 24 January 2019
Orbit: 403 x 411 km, 51.6° (Epoch: 20 February)

Event Time Altitude Azimuth Distance (km) Brightness Sun altitude
Rises 19:30:09 0° 254° (WSW) 2,334 1.1 -29.2°
Reaches altitude 10° 19:32:14 10° 256° (WSW) 1,476 -0.2 -29.6°
Enters shadow 19:32:49 14° 258° (WSW) 1,237 -0.6 -29.7°
Maximum altitude 19:35:32 73° 342° (NNW) 435 - -30.1°
Drops below altitude 10° 19:38:52 10° 68° (ENE) 1,485 - -30.6°
Sets 19:40:58 0° 70° (ENE) 2,350 - -31.0°
